sat.trackr.live / text

‹ back to catalog

STARLINK-30252

NORAD 57607 · 2023-119F

PAYLOAD ACTIVE UNKNOWN

§ Identity

Operator
Country
US
Launch date
2023-08-11
Launch site
AFETR
Launch vehicle
Mass (kg)
RCS (m²)

Purposes: comms

External: N2YO · Heavens-Above · Gunter

§ Orbital elements

Epoch: 2026-09-20T16:20:34.971648Z

Period
94.27 min
Inclination
43.0023°
Eccentricity
0.0001316
Mean motion
15.27580458 rev/d
Perigee alt
482.1 km
Apogee alt
484.0 km
Semi-major
6,861.2 km
B*
2.5135e-5
RAAN
45.4331°
Arg perigee
272.9088°
Mean anomaly
87.1613°
Rev number
17,308

§ Raw data

STARLINK-302521 57607U 23119F   26263.68096032  .00000430  00000+0  25135-4 0  99902 57607  43.0023  45.4331 0001316 272.9088  87.1613 15.27580458173086

JSON: /api/v1/satellites/57607 · /tle

For live sub-satellite position, see the globe view (requires WebGL).

§ Visibility from observer

Set your observer location to see the next 7 days of passes ≥ 10°. The values pass through the URL so the page stays shareable.

No JS? Fill the form by hand. The geolocation button needs JavaScript.